Wetterdaten: Sonntag, 23.11.2014
Datum Zeit Temperatur Luftfeuchte Luftdruck Regen Wind Richtung Richtung Taupunkt Windchill Windben
23.11.2014 00:00 1,9 C 95 % 1022,4 hPa 0,0 l/m 0,0 km/h (0 Bft) SO 135 1,2 C 7,8 C 0,0 km/h (0 Bft)
23.11.2014 00:05 1,4 C 95 % 1022,4 hPa 0,0 l/m 0,0 km/h (0 Bft) SO 135 0,7 C 7,8 C 0,0 km/h (0 Bft)
23.11.2014 00:10 1,7 C 95 % 1022,4 hPa 0,0 l/m 0,0 km/h (0 Bft) SO 135 1,0 C 7,8 C 0,0 km/h (0 Bft)
23.11.2014 00:15 1,7 C 95 % 1022,4 hPa 0,0 l/m 0,0 km/h (0 Bft) SO 135 1,0 C 7,8 C 0,0 km/h (0 Bft)
23.11.2014 00:20 1,5 C 95 % 1022,4 hPa 0,0 l/m 0,0 km/h (0 Bft) SO 135 0,8 C 7,8 C 0,0 km/h (0 Bft)
23.11.2014 00:25 1,3 C 95 % 1022,4 hPa 0,0 l/m 0,0 km/h (0 Bft) SO 135 0,6 C 7,8 C 0,0 km/h (0 Bft)
23.11.2014 00:30 1,8 C 95 % 1022,4 hPa 0,0 l/m 0,0 km/h (0 Bft) SO 135 1,1 C 7,8 C 0,0 km/h (0 Bft)
23.11.2014 00:35 1,5 C 95 % 1022,4 hPa 0,0 l/m 0,0 km/h (0 Bft) SO 135 0,8 C 7,8 C 0,0 km/h (0 Bft)
23.11.2014 00:40 1,5 C 95 % 1022,4 hPa 0,0 l/m 0,0 km/h (0 Bft) SO 135 0,8 C 7,8 C 0,0 km/h (0 Bft)
23.11.2014 00:45 1,6 C 95 % 1022,4 hPa 0,0 l/m 0,0 km/h (0 Bft) SO 135 0,9 C 7,8 C 0,0 km/h (0 Bft)
23.11.2014 00:50 1,4 C 95 % 1022,4 hPa 0,0 l/m 0,0 km/h (0 Bft) SO 135 0,7 C 7,8 C 0,0 km/h (0 Bft)
23.11.2014 00:55 1,6 C 95 % 1022,4 hPa 0,0 l/m 0,0 km/h (0 Bft) SO 135 0,9 C 7,8 C 0,0 km/h (0 Bft)
23.11.2014 01:00 1,2 C 95 % 1022,2 hPa 0,0 l/m 0,0 km/h (0 Bft) SO 135 0,5 C 7,8 C 0,0 km/h (0 Bft)
23.11.2014 01:05 1,1 C 95 % 1022,2 hPa 0,0 l/m 0,0 km/h (0 Bft) SO 135 0,4 C 7,8 C 0,0 km/h (0 Bft)
23.11.2014 01:10 1,7 C 95 % 1022,2 hPa 0,0 l/m 0,0 km/h (0 Bft) SO 135 1,0 C 7,8 C 0,0 km/h (0 Bft)
23.11.2014 01:15 1,0 C 95 % 1022,2 hPa 0,0 l/m 0,0 km/h (0 Bft) SO 135 0,3 C 7,8 C 0,0 km/h (0 Bft)
23.11.2014 01:20 0,8 C 95 % 1022,2 hPa 0,0 l/m 0,0 km/h (0 Bft) SO 135 0,1 C 7,8 C 0,0 km/h (0 Bft)
23.11.2014 01:25 1,0 C 95 % 1022,2 hPa 0,0 l/m 0,0 km/h (0 Bft) SO 135 0,3 C 7,8 C 0,0 km/h (0 Bft)
23.11.2014 01:30 1,2 C 95 % 1022,2 hPa 0,0 l/m 0,0 km/h (0 Bft) SO 135 0,5 C 7,8 C 0,0 km/h (0 Bft)
23.11.2014 01:35 1,0 C 95 % 1022,2 hPa 0,0 l/m 0,0 km/h (0 Bft) SO 135 0,3 C 7,8 C 0,0 km/h (0 Bft)
23.11.2014 01:40 0,8 C 95 % 1022,1 hPa 0,0 l/m 0,0 km/h (0 Bft) SO 135 0,1 C 7,8 C 0,0 km/h (0 Bft)
23.11.2014 01:45 1,1 C 95 % 1022,1 hPa 0,0 l/m 0,0 km/h (0 Bft) SO 135 0,4 C 7,8 C 0,0 km/h (0 Bft)
23.11.2014 01:50 0,8 C 96 % 1022,1 hPa 0,0 l/m 0,0 km/h (0 Bft) SO 135 0,2 C 7,8 C 0,0 km/h (0 Bft)
23.11.2014 01:55 1,4 C 95 % 1022,1 hPa 0,0 l/m 0,0 km/h (0 Bft) SO 135 0,7 C 7,8 C 0,0 km/h (0 Bft)
23.11.2014 02:00 1,3 C 96 % 1022,3 hPa 0,0 l/m 0,0 km/h (0 Bft) SO 135 0,7 C 7,8 C 0,0 km/h (0 Bft)
23.11.2014 02:05 0,9 C 96 % 1022,3 hPa 0,0 l/m 0,0 km/h (0 Bft) SO 135 0,3 C 7,8 C 0,0 km/h (0 Bft)
23.11.2014 02:10 0,7 C 96 % 1022,3 hPa 0,0 l/m 0,0 km/h (0 Bft) SO 135 0,1 C 7,8 C 0,0 km/h (0 Bft)
23.11.2014 02:15 0,8 C 96 % 1022,3 hPa 0,0 l/m 0,0 km/h (0 Bft) SO 135 0,2 C 7,8 C 0,0 km/h (0 Bft)
23.11.2014 02:20 0,6 C 96 % 1022,2 hPa 0,0 l/m 0,0 km/h (0 Bft) SO 135 0,0 C 7,8 C 0,0 km/h (0 Bft)
23.11.2014 02:25 0,7 C 96 % 1022,2 hPa 0,0 l/m 0,0 km/h (0 Bft) SO 135 0,1 C 7,8 C 0,0 km/h (0 Bft)
23.11.2014 02:28 0,6 C 96 % 1022,2 hPa 0,0 l/m 0,0 km/h (0 Bft) SO 135 0,0 C 7,8 C 0,0 km/h (0 Bft)
23.11.2014 02:30 0,6 C 96 % 1022,2 hPa 0,0 l/m 0,0 km/h (0 Bft) SO 135 0,0 C 7,8 C 0,0 km/h (0 Bft)
23.11.2014 02:35 0,7 C 96 % 1022,2 hPa 0,0 l/m 0,0 km/h (0 Bft) SO 135 0,1 C 7,8 C 0,0 km/h (0 Bft)
23.11.2014 02:40 0,7 C 96 % 1022,1 hPa 0,0 l/m 0,0 km/h (0 Bft) SO 135 0,1 C 7,8 C 0,0 km/h (0 Bft)
23.11.2014 02:45 0,4 C 96 % 1022,1 hPa 0,0 l/m 0,0 km/h (0 Bft) SO 135 -0,2 C 7,8 C 0,0 km/h (0 Bft)
23.11.2014 02:50 0,3 C 96 % 1022,1 hPa 0,0 l/m 0,0 km/h (0 Bft) SO 135 -0,3 C 7,8 C 0,0 km/h (0 Bft)
23.11.2014 02:55 0,5 C 96 % 1022,1 hPa 0,0 l/m 0,0 km/h (0 Bft) SO 135 -0,1 C 7,8 C 0,0 km/h (0 Bft)
23.11.2014 03:00 0,3 C 96 % 1022,3 hPa 0,0 l/m 0,0 km/h (0 Bft) SO 135 -0,3 C 7,8 C 0,0 km/h (0 Bft)
23.11.2014 03:05 0,7 C 96 % 1022,3 hPa 0,0 l/m 0,0 km/h (0 Bft) SO 135 0,1 C 7,8 C 0,0 km/h (0 Bft)
23.11.2014 03:10 0,8 C 96 % 1022,3 hPa 0,0 l/m 0,0 km/h (0 Bft) SO 135 0,2 C 7,8 C 0,0 km/h (0 Bft)
23.11.2014 03:15 0,5 C 96 % 1022,3 hPa 0,0 l/m 0,0 km/h (0 Bft) SO 135 -0,1 C 7,8 C 0,0 km/h (0 Bft)
23.11.2014 03:20 0,6 C 96 % 1022,4 hPa 0,0 l/m 0,0 km/h (0 Bft) SO 135 0,0 C 7,8 C 0,0 km/h (0 Bft)
23.11.2014 03:25 0,9 C 96 % 1022,4 hPa 0,0 l/m 0,0 km/h (0 Bft) SO 135 0,3 C 7,8 C 0,0 km/h (0 Bft)
23.11.2014 03:30 0,9 C 96 % 1022,4 hPa 0,0 l/m 0,0 km/h (0 Bft) SO 135 0,3 C 7,8 C 0,0 km/h (0 Bft)
23.11.2014 03:35 0,7 C 96 % 1022,4 hPa 0,0 l/m 0,0 km/h (0 Bft) SO 135 0,1 C 7,8 C 0,0 km/h (0 Bft)
23.11.2014 03:40 0,5 C 96 % 1022,6 hPa 0,0 l/m 0,0 km/h (0 Bft) SO 135 -0,1 C 7,8 C 0,0 km/h (0 Bft)
23.11.2014 03:45 0,5 C 96 % 1022,6 hPa 0,0 l/m 0,0 km/h (0 Bft) SO 135 -0,1 C 7,8 C 0,0 km/h (0 Bft)
23.11.2014 03:50 0,3 C 96 % 1022,6 hPa 0,0 l/m 0,0 km/h (0 Bft) SO 135 -0,3 C 7,8 C 0,0 km/h (0 Bft)
23.11.2014 03:55 0,2 C 96 % 1022,6 hPa 0,0 l/m 0,0 km/h (0 Bft) SO 135 -0,4 C 7,8 C 0,0 km/h (0 Bft)
23.11.2014 04:00 0,3 C 96 % 1022,3 hPa 0,0 l/m 0,0 km/h (0 Bft) SO 135 -0,3 C 7,8 C 0,0 km/h (0 Bft)
23.11.2014 04:05 0,4 C 96 % 1022,3 hPa 0,0 l/m 0,0 km/h (0 Bft) SO 135 -0,2 C 7,8 C 0,0 km/h (0 Bft)
23.11.2014 04:10 0,5 C 97 % 1022,3 hPa 0,0 l/m 0,0 km/h (0 Bft) SO 135 0,1 C 7,8 C 0,0 km/h (0 Bft)
23.11.2014 04:15 0,9 C 97 % 1022,3 hPa 0,0 l/m 0,0 km/h (0 Bft) SO 135 0,5 C 7,8 C 0,0 km/h (0 Bft)
23.11.2014 04:20 0,8 C 97 % 1022,5 hPa 0,0 l/m 0,0 km/h (0 Bft) SO 135 0,4 C 7,8 C 0,0 km/h (0 Bft)
23.11.2014 04:25 0,5 C 97 % 1022,5 hPa 0,0 l/m 0,0 km/h (0 Bft) SO 135 0,1 C 7,8 C 0,0 km/h (0 Bft)
23.11.2014 04:30 0,6 C 97 % 1022,5 hPa 0,0 l/m 0,0 km/h (0 Bft) SO 135 0,2 C 7,8 C 0,0 km/h (0 Bft)
23.11.2014 04:35 0,1 C 97 % 1022,5 hPa 0,0 l/m 0,0 km/h (0 Bft) SO 135 -0,3 C 7,8 C 0,0 km/h (0 Bft)
23.11.2014 04:40 0,3 C 97 % 1022,4 hPa 0,0 l/m 0,0 km/h (0 Bft) SO 135 -0,1 C 7,8 C 0,0 km/h (0 Bft)
23.11.2014 04:45 0,0 C 97 % 1022,4 hPa 0,0 l/m 0,0 km/h (0 Bft) SO 135 -0,4 C 7,8 C 0,0 km/h (0 Bft)
23.11.2014 04:50 0,0 C 97 % 1022,4 hPa 0,0 l/m 0,0 km/h (0 Bft) SO 135 -0,4 C 7,8 C 0,0 km/h (0 Bft)
23.11.2014 04:55 0,3 C 97 % 1022,4 hPa 0,0 l/m 0,0 km/h (0 Bft) SO 135 -0,1 C 7,8 C 0,0 km/h (0 Bft)
23.11.2014 05:00 0,5 C 97 % 1022,5 hPa 0,0 l/m 0,0 km/h (0 Bft) SO 135 0,1 C 7,8 C 0,0 km/h (0 Bft)
23.11.2014 05:05 1,3 C 97 % 1022,5 hPa 0,0 l/m 0,0 km/h (0 Bft) SO 135 0,9 C 7,8 C 0,0 km/h (0 Bft)
23.11.2014 05:10 0,9 C 97 % 1022,5 hPa 0,0 l/m 0,0 km/h (0 Bft) SO 135 0,5 C 7,8 C 0,0 km/h (0 Bft)
23.11.2014 05:15 0,2 C 97 % 1022,5 hPa 0,0 l/m 0,0 km/h (0 Bft) SO 135 -0,2 C 7,8 C 0,0 km/h (0 Bft)
23.11.2014 05:20 0,1 C 97 % 1022,4 hPa 0,0 l/m 0,0 km/h (0 Bft) SO 135 -0,3 C 7,8 C 0,0 km/h (0 Bft)
23.11.2014 05:25 0,4 C 97 % 1022,4 hPa 0,0 l/m 0,0 km/h (0 Bft) SO 135 -0,0 C 7,8 C 0,0 km/h (0 Bft)
23.11.2014 05:28 0,3 C 97 % 1022,4 hPa 0,0 l/m 0,0 km/h (0 Bft) SO 135 -0,1 C 7,8 C 0,0 km/h (0 Bft)
23.11.2014 05:30 0,3 C 97 % 1022,4 hPa 0,0 l/m 0,0 km/h (0 Bft) SO 135 -0,1 C 7,8 C 0,0 km/h (0 Bft)
23.11.2014 05:35 0,3 C 97 % 1022,4 hPa 0,0 l/m 0,0 km/h (0 Bft) SO 135 -0,1 C 7,8 C 0,0 km/h (0 Bft)
23.11.2014 05:40 0,4 C 97 % 1022,4 hPa 0,0 l/m 0,0 km/h (0 Bft) SO 135 -0,0 C 7,8 C 0,0 km/h (0 Bft)
23.11.2014 05:45 0,4 C 97 % 1022,4 hPa 0,0 l/m 0,0 km/h (0 Bft) SO 135 -0,0 C 7,8 C 0,0 km/h (0 Bft)
23.11.2014 05:50 0,3 C 97 % 1022,4 hPa 0,0 l/m 0,0 km/h (0 Bft) SO 135 -0,1 C 7,8 C 0,0 km/h (0 Bft)
23.11.2014 05:55 0,1 C 97 % 1022,4 hPa 0,0 l/m 0,0 km/h (0 Bft) SO 135 -0,3 C 7,8 C 0,0 km/h (0 Bft)
23.11.2014 06:00 0,0 C 97 % 1022,4 hPa 0,0 l/m 0,0 km/h (0 Bft) SO 135 -0,4 C 7,8 C 0,0 km/h (0 Bft)
23.11.2014 06:05 -0,1 C 97 % 1022,4 hPa 0,0 l/m 0,0 km/h (0 Bft) SO 135 -0,5 C 7,8 C 0,0 km/h (0 Bft)
23.11.2014 06:10 0,0 C 97 % 1022,4 hPa 0,0 l/m 0,0 km/h (0 Bft) SO 135 -0,4 C 7,8 C 0,0 km/h (0 Bft)
23.11.2014 06:15 -0,1 C 97 % 1022,4 hPa 0,0 l/m 0,0 km/h (0 Bft) SO 135 -0,5 C 7,8 C 0,0 km/h (0 Bft)
23.11.2014 06:20 0,0 C 97 % 1022,4 hPa 0,0 l/m 0,0 km/h (0 Bft) SO 135 -0,4 C 7,8 C 0,0 km/h (0 Bft)
23.11.2014 06:25 -0,4 C 97 % 1022,4 hPa 0,0 l/m 0,0 km/h (0 Bft) SO 135 -0,8 C 7,8 C 0,0 km/h (0 Bft)
23.11.2014 06:30 -0,3 C 97 % 1022,4 hPa 0,0 l/m 0,0 km/h (0 Bft) SO 135 -0,7 C 7,8 C 0,0 km/h (0 Bft)
23.11.2014 06:35 -0,3 C 97 % 1022,4 hPa 0,0 l/m 0,0 km/h (0 Bft) SO 135 -0,7 C 7,8 C 0,0 km/h (0 Bft)
23.11.2014 06:40 -0,1 C 97 % 1022,5 hPa 0,0 l/m 0,0 km/h (0 Bft) SO 135 -0,5 C 7,8 C 0,0 km/h (0 Bft)
23.11.2014 06:45 0,1 C 97 % 1022,5 hPa 0,0 l/m 0,0 km/h (0 Bft) SO 135 -0,3 C 7,8 C 0,0 km/h (0 Bft)
23.11.2014 06:50 0,0 C 97 % 1022,5 hPa 0,0 l/m 0,0 km/h (0 Bft) SO 135 -0,4 C 7,8 C 0,0 km/h (0 Bft)
23.11.2014 06:55 -0,4 C 97 % 1022,5 hPa 0,0 l/m 0,0 km/h (0 Bft) SO 135 -0,8 C 7,8 C 0,0 km/h (0 Bft)
23.11.2014 07:00 -0,7 C 97 % 1022,6 hPa 0,0 l/m 0,0 km/h (0 Bft) SO 135 -1,1 C 7,8 C 0,0 km/h (0 Bft)
23.11.2014 07:05 -0,5 C 97 % 1022,6 hPa 0,0 l/m 0,0 km/h (0 Bft) SO 135 -0,9 C 7,8 C 0,0 km/h (0 Bft)
23.11.2014 07:10 -0,5 C 97 % 1022,6 hPa 0,0 l/m 0,0 km/h (0 Bft) SO 135 -0,9 C 7,8 C 0,0 km/h (0 Bft)
23.11.2014 07:15 -0,2 C 97 % 1022,6 hPa 0,0 l/m 0,0 km/h (0 Bft) SO 135 -0,6 C 7,8 C 0,0 km/h (0 Bft)
23.11.2014 07:20 -0,1 C 97 % 1023,0 hPa 0,0 l/m 0,0 km/h (0 Bft) SO 135 -0,5 C 7,8 C 0,0 km/h (0 Bft)
23.11.2014 07:25 -0,1 C 97 % 1023,0 hPa 0,0 l/m 0,0 km/h (0 Bft) SO 135 -0,5 C 7,8 C 0,0 km/h (0 Bft)
23.11.2014 07:30 0,0 C 97 % 1023,0 hPa 0,0 l/m 0,0 km/h (0 Bft) SO 135 -0,4 C 7,8 C 0,0 km/h (0 Bft)
23.11.2014 07:35 0,0 C 97 % 1023,0 hPa 0,0 l/m 0,0 km/h (0 Bft) SO 135 -0,4 C 7,8 C 0,0 km/h (0 Bft)
23.11.2014 07:40 0,1 C 97 % 1023,0 hPa 0,0 l/m 0,0 km/h (0 Bft) SO 135 -0,3 C 7,8 C 0,0 km/h (0 Bft)
23.11.2014 07:45 0,5 C 97 % 1023,0 hPa 0,0 l/m 0,0 km/h (0 Bft) SO 135 0,1 C 7,8 C 0,0 km/h (0 Bft)
23.11.2014 07:50 1,6 C 97 % 1023,0 hPa 0,0 l/m 0,0 km/h (0 Bft) SO 135 1,2 C 7,8 C 0,0 km/h (0 Bft)
23.11.2014 07:55 0,4 C 97 % 1023,0 hPa 0,0 l/m 0,0 km/h (0 Bft) SO 135 -0,0 C 7,8 C 0,0 km/h (0 Bft)
23.11.2014 08:00 0,0 C 97 % 1023,2 hPa 0,0 l/m 0,0 km/h (0 Bft) SO 135 -0,4 C 7,8 C 0,0 km/h (0 Bft)
23.11.2014 08:05 0,0 C 97 % 1023,2 hPa 0,0 l/m 0,0 km/h (0 Bft) SO 135 -0,4 C 7,8 C 0,0 km/h (0 Bft)
23.11.2014 08:10 0,2 C 97 % 1023,2 hPa 0,0 l/m 0,0 km/h (0 Bft) SO 135 -0,2 C 7,8 C 0,0 km/h (0 Bft)
23.11.2014 08:15 0,4 C 97 % 1023,2 hPa 0,0 l/m 0,0 km/h (0 Bft) SO 135 -0,0 C 7,8 C 0,0 km/h (0 Bft)
23.11.2014 08:20 0,4 C 97 % 1023,6 hPa 0,0 l/m 0,0 km/h (0 Bft) SO 135 -0,0 C 7,8 C 0,0 km/h (0 Bft)
23.11.2014 08:25 1,0 C 97 % 1023,6 hPa 0,0 l/m 0,0 km/h (0 Bft) SO 135 0,6 C 7,8 C 0,0 km/h (0 Bft)
23.11.2014 08:28 0,7 C 97 % 1023,6 hPa 0,0 l/m 0,0 km/h (0 Bft) SO 135 0,3 C 7,8 C 0,0 km/h (0 Bft)
23.11.2014 08:35 0,7 C 97 % 1023,6 hPa 0,0 l/m 0,0 km/h (0 Bft) SO 135 0,3 C 7,8 C 0,0 km/h (0 Bft)
23.11.2014 08:40 0,7 C 97 % 1023,4 hPa 0,0 l/m 0,0 km/h (0 Bft) SO 135 0,3 C 7,8 C 0,0 km/h (0 Bft)
23.11.2014 08:45 0,6 C 97 % 1023,4 hPa 0,0 l/m 0,0 km/h (0 Bft) SO 135 0,2 C 7,8 C 0,0 km/h (0 Bft)
23.11.2014 08:50 0,7 C 97 % 1023,4 hPa 0,0 l/m 0,0 km/h (0 Bft) SO 135 0,3 C 7,8 C 0,0 km/h (0 Bft)
23.11.2014 08:55 0,7 C 98 % 1023,4 hPa 0,0 l/m 0,0 km/h (0 Bft) SO 135 0,4 C 7,8 C 0,0 km/h (0 Bft)
23.11.2014 09:00 1,0 C 97 % 1023,7 hPa 0,0 l/m 0,0 km/h (0 Bft) SO 135 0,6 C 7,8 C 0,0 km/h (0 Bft)
23.11.2014 09:05 1,2 C 97 % 1023,7 hPa 0,0 l/m 0,0 km/h (0 Bft) SO 135 0,8 C 7,8 C 0,0 km/h (0 Bft)
23.11.2014 09:10 1,3 C 97 % 1023,7 hPa 0,0 l/m 0,0 km/h (0 Bft) SO 135 0,9 C 7,8 C 0,0 km/h (0 Bft)
23.11.2014 09:15 1,6 C 97 % 1023,7 hPa 0,0 l/m 0,0 km/h (0 Bft) SO 135 1,2 C 7,8 C 0,0 km/h (0 Bft)
23.11.2014 09:20 1,7 C 97 % 1023,6 hPa 0,0 l/m 0,0 km/h (0 Bft) SO 135 1,3 C 7,8 C 0,0 km/h (0 Bft)
23.11.2014 09:25 2,1 C 97 % 1023,6 hPa 0,0 l/m 0,0 km/h (0 Bft) SO 135 1,7 C 7,8 C 0,0 km/h (0 Bft)
23.11.2014 09:30 2,4 C 97 % 1023,6 hPa 0,0 l/m 0,0 km/h (0 Bft) SO 135 2,0 C 7,8 C 0,0 km/h (0 Bft)
23.11.2014 09:35 2,4 C 97 % 1023,6 hPa 0,0 l/m 0,0 km/h (0 Bft) SO 135 2,0 C 7,8 C 0,0 km/h (0 Bft)
23.11.2014 09:40 2,4 C 97 % 1023,9 hPa 0,0 l/m 0,0 km/h (0 Bft) SO 135 2,0 C 7,8 C 0,0 km/h (0 Bft)
23.11.2014 09:45 2,7 C 97 % 1023,9 hPa 0,0 l/m 0,0 km/h (0 Bft) SO 135 2,3 C 7,8 C 0,0 km/h (0 Bft)
23.11.2014 09:50 2,8 C 97 % 1023,9 hPa 0,0 l/m 0,0 km/h (0 Bft) SO 135 2,4 C 7,8 C 0,0 km/h (0 Bft)
23.11.2014 09:55 3,1 C 96 % 1023,9 hPa 0,0 l/m 0,0 km/h (0 Bft) SO 135 2,5 C 7,8 C 0,0 km/h (0 Bft)
23.11.2014 10:00 3,8 C 97 % 1023,9 hPa 0,0 l/m 0,0 km/h (0 Bft) SO 135 3,4 C 7,8 C 0,0 km/h (0 Bft)
23.11.2014 10:05 3,9 C 97 % 1023,9 hPa 0,0 l/m 0,0 km/h (0 Bft) SO 135 3,5 C 7,8 C 0,0 km/h (0 Bft)
23.11.2014 10:10 4,3 C 96 % 1023,9 hPa 0,0 l/m 0,0 km/h (0 Bft) SO 135 3,7 C 7,8 C 0,0 km/h (0 Bft)
23.11.2014 10:15 4,3 C 96 % 1023,9 hPa 0,0 l/m 0,0 km/h (0 Bft) SO 135 3,7 C 7,8 C 0,0 km/h (0 Bft)
23.11.2014 10:20 4,4 C 96 % 1024,1 hPa 0,0 l/m 0,0 km/h (0 Bft) SO 135 3,8 C 7,8 C 0,0 km/h (0 Bft)
23.11.2014 10:25 4,7 C 96 % 1024,1 hPa 0,0 l/m 0,0 km/h (0 Bft) SO 135 4,1 C 7,8 C 0,0 km/h (0 Bft)
23.11.2014 10:30 4,9 C 96 % 1024,1 hPa 0,0 l/m 0,0 km/h (0 Bft) SO 135 4,3 C 7,8 C 0,0 km/h (0 Bft)
23.11.2014 10:35 5,4 C 96 % 1024,1 hPa 0,0 l/m 0,0 km/h (0 Bft) SO 135 4,8 C 7,8 C 0,0 km/h (0 Bft)
23.11.2014 10:40 5,7 C 96 % 1024,2 hPa 0,0 l/m 0,0 km/h (0 Bft) SO 135 5,1 C 7,8 C 0,0 km/h (0 Bft)
23.11.2014 10:45 5,7 C 96 % 1024,2 hPa 0,0 l/m 0,0 km/h (0 Bft) SO 135 5,1 C 7,8 C 0,0 km/h (0 Bft)
23.11.2014 10:50 5,9 C 96 % 1024,2 hPa 0,0 l/m 0,0 km/h (0 Bft) SO 135 5,3 C 7,8 C 0,0 km/h (0 Bft)
23.11.2014 10:55 6,0 C 95 % 1024,2 hPa 0,0 l/m 0,0 km/h (0 Bft) SO 135 5,3 C 7,8 C 0,0 km/h (0 Bft)
23.11.2014 11:00 5,8 C 96 % 1024,2 hPa 0,0 l/m 0,0 km/h (0 Bft) SO 135 5,2 C 7,8 C 0,0 km/h (0 Bft)
23.11.2014 11:05 6,2 C 95 % 1024,2 hPa 0,0 l/m 0,0 km/h (0 Bft) SO 135 5,5 C 7,8 C 0,0 km/h (0 Bft)
23.11.2014 11:10 6,5 C 95 % 1024,2 hPa 0,0 l/m 0,0 km/h (0 Bft) SO 135 5,8 C 7,8 C 0,0 km/h (0 Bft)
23.11.2014 11:15 6,7 C 95 % 1024,2 hPa 0,0 l/m 0,0 km/h (0 Bft) SO 135 6,0 C 7,8 C 0,0 km/h (0 Bft)
23.11.2014 11:20 6,8 C 95 % 1024,1 hPa 0,0 l/m 0,0 km/h (0 Bft) SO 135 6,1 C 7,8 C 0,0 km/h (0 Bft)
23.11.2014 11:25 6,7 C 95 % 1024,1 hPa 0,0 l/m 0,0 km/h (0 Bft) SO 135 6,0 C 7,8 C 0,0 km/h (0 Bft)
23.11.2014 11:28 6,8 C 95 % 1024,1 hPa 0,0 l/m 0,0 km/h (0 Bft) SO 135 6,1 C 7,8 C 0,0 km/h (0 Bft)
23.11.2014 11:35 6,9 C 95 % 1024,1 hPa 0,0 l/m 0,0 km/h (0 Bft) SO 135 6,2 C 7,8 C 0,0 km/h (0 Bft)
23.11.2014 11:40 7,1 C 95 % 1024,1 hPa 0,0 l/m 0,0 km/h (0 Bft) SO 135 6,4 C 7,8 C 0,0 km/h (0 Bft)
23.11.2014 11:45 7,3 C 95 % 1024,1 hPa 0,0 l/m 0,0 km/h (0 Bft) SO 135 6,6 C 7,8 C 0,0 km/h (0 Bft)
23.11.2014 11:50 7,6 C 95 % 1024,1 hPa 0,0 l/m 0,0 km/h (0 Bft) SO 135 6,9 C 7,8 C 0,0 km/h (0 Bft)
23.11.2014 11:55 7,6 C 95 % 1024,1 hPa 0,0 l/m 0,0 km/h (0 Bft) SO 135 6,9 C 7,8 C 0,0 km/h (0 Bft)
23.11.2014 12:00 7,5 C 95 % 1023,9 hPa 0,0 l/m 0,0 km/h (0 Bft) SO 135 6,8 C 7,8 C 0,0 km/h (0 Bft)
23.11.2014 12:05 7,6 C 95 % 1023,9 hPa 0,0 l/m 0,0 km/h (0 Bft) SO 135 6,9 C 7,8 C 0,0 km/h (0 Bft)
23.11.2014 12:10 7,8 C 95 % 1023,9 hPa 0,0 l/m 0,0 km/h (0 Bft) SO 135 7,0 C 7,8 C 0,0 km/h (0 Bft)
23.11.2014 12:15 7,8 C 95 % 1023,9 hPa 0,0 l/m 0,0 km/h (0 Bft) SO 135 7,0 C 7,8 C 0,0 km/h (0 Bft)
23.11.2014 12:20 7,9 C 95 % 1023,6 hPa 0,0 l/m 0,0 km/h (0 Bft) SO 135 7,1 C 7,8 C 0,0 km/h (0 Bft)
23.11.2014 12:25 8,2 C 95 % 1023,6 hPa 0,0 l/m 0,0 km/h (0 Bft) SO 135 7,4 C 7,8 C 0,0 km/h (0 Bft)
23.11.2014 12:30 8,1 C 95 % 1023,6 hPa 0,0 l/m 0,0 km/h (0 Bft) SO 135 7,3 C 7,8 C 0,0 km/h (0 Bft)
23.11.2014 12:35 8,1 C 95 % 1023,6 hPa 0,0 l/m 0,0 km/h (0 Bft) SO 135 7,3 C 7,8 C 0,0 km/h (0 Bft)
23.11.2014 12:40 8,3 C 95 % 1023,6 hPa 0,0 l/m 0,0 km/h (0 Bft) SO 135 7,5 C 7,8 C 0,0 km/h (0 Bft)
23.11.2014 12:45 8,5 C 95 % 1023,6 hPa 0,0 l/m 0,0 km/h (0 Bft) SO 135 7,7 C 7,8 C 0,0 km/h (0 Bft)
23.11.2014 12:50 8,3 C 95 % 1023,6 hPa 0,0 l/m 0,0 km/h (0 Bft) SO 135 7,5 C 7,8 C 0,0 km/h (0 Bft)
23.11.2014 12:55 8,4 C 94 % 1023,6 hPa 0,0 l/m 0,0 km/h (0 Bft) SO 135 7,5 C 7,8 C 0,0 km/h (0 Bft)
23.11.2014 13:00 8,5 C 94 % 1023,6 hPa 0,0 l/m 0,0 km/h (0 Bft) SO 135 7,6 C 7,8 C 0,0 km/h (0 Bft)
23.11.2014 13:05 8,4 C 94 % 1023,6 hPa 0,0 l/m 0,0 km/h (0 Bft) SO 135 7,5 C 7,8 C 0,0 km/h (0 Bft)
23.11.2014 13:10 8,6 C 94 % 1023,6 hPa 0,0 l/m 0,0 km/h (0 Bft) SO 135 7,7 C 7,8 C 0,0 km/h (0 Bft)
23.11.2014 13:15 8,4 C 94 % 1023,6 hPa 0,0 l/m 0,0 km/h (0 Bft) SO 135 7,5 C 7,8 C 0,0 km/h (0 Bft)
23.11.2014 13:20 8,4 C 94 % 1023,1 hPa 0,0 l/m 0,0 km/h (0 Bft) SO 135 7,5 C 7,8 C 0,0 km/h (0 Bft)
23.11.2014 13:25 8,5 C 94 % 1023,1 hPa 0,0 l/m 0,0 km/h (0 Bft) SO 135 7,6 C 7,8 C 0,0 km/h (0 Bft)
23.11.2014 13:30 8,6 C 94 % 1023,1 hPa 0,0 l/m 0,0 km/h (0 Bft) SO 135 7,7 C 7,8 C 0,0 km/h (0 Bft)
23.11.2014 13:35 8,4 C 93 % 1023,1 hPa 0,0 l/m 0,0 km/h (0 Bft) SO 135 7,3 C 7,8 C 0,0 km/h (0 Bft)
23.11.2014 13:40 8,5 C 93 % 1023,1 hPa 0,0 l/m 0,0 km/h (0 Bft) SO 135 7,4 C 7,8 C 0,0 km/h (0 Bft)
23.11.2014 13:45 9,0 C 93 % 1023,1 hPa 0,0 l/m 0,0 km/h (0 Bft) SO 135 7,9 C 7,8 C 0,0 km/h (0 Bft)
23.11.2014 13:50 9,4 C 92 % 1023,1 hPa 0,0 l/m 0,0 km/h (0 Bft) SO 135 8,2 C 7,8 C 0,0 km/h (0 Bft)
23.11.2014 13:55 10,3 C 90 % 1023,1 hPa 0,0 l/m 0,0 km/h (0 Bft) SO 135 8,7 C 7,8 C 0,0 km/h (0 Bft)
23.11.2014 14:00 10,5 C 88 % 1023,4 hPa 0,0 l/m 0,0 km/h (0 Bft) SO 135 8,6 C 7,8 C 0,0 km/h (0 Bft)
23.11.2014 14:05 10,9 C 86 % 1023,4 hPa 0,0 l/m 0,0 km/h (0 Bft) SO 135 8,7 C 7,8 C 0,0 km/h (0 Bft)
23.11.2014 14:10 11,0 C 84 % 1023,4 hPa 0,0 l/m 0,0 km/h (0 Bft) SO 135 8,4 C 7,8 C 0,0 km/h (0 Bft)
23.11.2014 14:15 10,7 C 83 % 1023,4 hPa 0,0 l/m 0,0 km/h (0 Bft) SO 135 7,9 C 7,8 C 0,0 km/h (0 Bft)
23.11.2014 14:20 10,7 C 82 % 1023,4 hPa 0,0 l/m 0,0 km/h (0 Bft) SO 135 7,8 C 7,8 C 0,0 km/h (0 Bft)
23.11.2014 14:23 10,5 C 82 % 1023,4 hPa 0,0 l/m 0,0 km/h (0 Bft) SO 135 7,6 C 7,8 C 0,0 km/h (0 Bft)
23.11.2014 14:25 10,5 C 82 % 1023,4 hPa 0,0 l/m 0,0 km/h (0 Bft) SO 135 7,6 C 7,8 C 0,0 km/h (0 Bft)
23.11.2014 14:30 10,2 C 83 % 1023,4 hPa 0,0 l/m 0,0 km/h (0 Bft) SO 135 7,4 C 7,8 C 0,0 km/h (0 Bft)
23.11.2014 14:35 10,1 C 84 % 1023,4 hPa 0,0 l/m 0,0 km/h (0 Bft) SO 135 7,5 C 7,8 C 0,0 km/h (0 Bft)
23.11.2014 14:40 10,0 C 85 % 1023,4 hPa 0,0 l/m 0,0 km/h (0 Bft) SO 135 7,6 C 7,8 C 0,0 km/h (0 Bft)
23.11.2014 14:45 9,9 C 85 % 1023,4 hPa 0,0 l/m 0,0 km/h (0 Bft) SO 135 7,5 C 7,8 C 0,0 km/h (0 Bft)
23.11.2014 14:50 9,7 C 85 % 1023,4 hPa 0,0 l/m 0,0 km/h (0 Bft) SO 135 7,3 C 7,8 C 0,0 km/h (0 Bft)
23.11.2014 14:55 9,6 C 86 % 1023,4 hPa 0,0 l/m 0,0 km/h (0 Bft) SO 135 7,4 C 7,8 C 0,0 km/h (0 Bft)
23.11.2014 15:00 9,5 C 86 % 1023,3 hPa 0,0 l/m 0,0 km/h (0 Bft) SO 135 7,3 C 7,8 C 0,0 km/h (0 Bft)
23.11.2014 15:05 9,4 C 87 % 1023,3 hPa 0,0 l/m 0,0 km/h (0 Bft) SO 135 7,3 C 7,8 C 0,0 km/h (0 Bft)
23.11.2014 15:10 9,0 C 87 % 1023,3 hPa 0,0 l/m 0,0 km/h (0 Bft) SO 135 7,0 C 7,8 C 0,0 km/h (0 Bft)
23.11.2014 15:15 9,1 C 88 % 1023,3 hPa 0,0 l/m 0,0 km/h (0 Bft) SO 135 7,2 C 7,8 C 0,0 km/h (0 Bft)
23.11.2014 15:20 9,1 C 88 % 1023,1 hPa 0,0 l/m 0,0 km/h (0 Bft) SO 135 7,2 C 7,8 C 0,0 km/h (0 Bft)
23.11.2014 15:25 9,2 C 89 % 1023,1 hPa 0,0 l/m 0,0 km/h (0 Bft) SO 135 7,5 C 7,8 C 0,0 km/h (0 Bft)
23.11.2014 15:30 8,6 C 89 % 1023,1 hPa 0,0 l/m 0,0 km/h (0 Bft) SO 135 6,9 C 7,8 C 0,0 km/h (0 Bft)
23.11.2014 15:35 8,8 C 89 % 1023,1 hPa 0,0 l/m 0,0 km/h (0 Bft) SO 135 7,1 C 7,8 C 0,0 km/h (0 Bft)
23.11.2014 15:40 8,7 C 90 % 1023,0 hPa 0,0 l/m 0,0 km/h (0 Bft) SO 135 7,2 C 7,8 C 0,0 km/h (0 Bft)
23.11.2014 15:45 8,2 C 90 % 1023,0 hPa 0,0 l/m 0,0 km/h (0 Bft) SO 135 6,7 C 7,8 C 0,0 km/h (0 Bft)
23.11.2014 15:50 7,8 C 90 % 1023,0 hPa 0,0 l/m 0,0 km/h (0 Bft) SO 135 6,3 C 7,8 C 0,0 km/h (0 Bft)
23.11.2014 15:55 7,7 C 90 % 1023,0 hPa 0,0 l/m 0,0 km/h (0 Bft) SO 135 6,2 C 7,8 C 0,0 km/h (0 Bft)
23.11.2014 16:00 7,2 C 90 % 1022,8 hPa 0,0 l/m 0,0 km/h (0 Bft) SO 135 5,7 C 7,8 C 0,0 km/h (0 Bft)
23.11.2014 16:05 6,8 C 90 % 1022,8 hPa 0,0 l/m 0,0 km/h (0 Bft) SO 135 5,3 C 7,8 C 0,0 km/h (0 Bft)
23.11.2014 16:10 6,7 C 90 % 1022,8 hPa 0,0 l/m 0,0 km/h (0 Bft) SO 135 5,2 C 7,8 C 0,0 km/h (0 Bft)
23.11.2014 16:15 7,1 C 90 % 1022,8 hPa 0,0 l/m 0,0 km/h (0 Bft) SO 135 5,6 C 7,8 C 0,0 km/h (0 Bft)
23.11.2014 16:20 6,8 C 91 % 1022,6 hPa 0,0 l/m 0,0 km/h (0 Bft) SO 135 5,4 C 7,8 C 0,0 km/h (0 Bft)
23.11.2014 16:25 6,1 C 90 % 1022,6 hPa 0,0 l/m 0,0 km/h (0 Bft) SO 135 4,6 C 7,8 C 0,0 km/h (0 Bft)
23.11.2014 16:30 6,9 C 91 % 1022,6 hPa 0,0 l/m 0,0 km/h (0 Bft) SO 135 5,5 C 7,8 C 0,0 km/h (0 Bft)
23.11.2014 16:35 6,9 C 90 % 1022,6 hPa 0,0 l/m 0,0 km/h (0 Bft) SO 135 5,4 C 7,8 C 0,0 km/h (0 Bft)
23.11.2014 16:40 6,9 C 90 % 1022,7 hPa 0,0 l/m 0,0 km/h (0 Bft) SO 135 5,4 C 7,8 C 0,0 km/h (0 Bft)
23.11.2014 16:45 6,7 C 90 % 1022,7 hPa 0,0 l/m 0,0 km/h (0 Bft) SO 135 5,2 C 7,8 C 0,0 km/h (0 Bft)
23.11.2014 16:50 6,0 C 90 % 1022,7 hPa 0,0 l/m 0,0 km/h (0 Bft) SO 135 4,5 C 7,8 C 0,0 km/h (0 Bft)
23.11.2014 16:55 5,4 C 91 % 1022,7 hPa 0,0 l/m 0,0 km/h (0 Bft) SO 135 4,1 C 7,8 C 0,0 km/h (0 Bft)
23.11.2014 17:00 5,0 C 91 % 1022,6 hPa 0,0 l/m 0,0 km/h (0 Bft) SO 135 3,7 C 7,8 C 0,0 km/h (0 Bft)
23.11.2014 17:05 5,3 C 91 % 1022,6 hPa 0,0 l/m 0,0 km/h (0 Bft) SO 135 4,0 C 7,8 C 0,0 km/h (0 Bft)
23.11.2014 17:10 5,9 C 92 % 1022,6 hPa 0,0 l/m 0,0 km/h (0 Bft) SO 135 4,7 C 7,8 C 0,0 km/h (0 Bft)
23.11.2014 17:15 5,8 C 92 % 1022,6 hPa 0,0 l/m 0,0 km/h (0 Bft) SO 135 4,6 C 7,8 C 0,0 km/h (0 Bft)
23.11.2014 17:20 4,9 C 92 % 1022,5 hPa 0,0 l/m 0,0 km/h (0 Bft) SO 135 3,7 C 7,8 C 0,0 km/h (0 Bft)
23.11.2014 17:23 4,2 C 92 % 1022,5 hPa 0,0 l/m 0,0 km/h (0 Bft) SO 135 3,0 C 7,8 C 0,0 km/h (0 Bft)
23.11.2014 17:25 4,2 C 92 % 1022,5 hPa 0,0 l/m 0,0 km/h (0 Bft) SO 135 3,0 C 7,8 C 0,0 km/h (0 Bft)
23.11.2014 17:30 4,0 C 92 % 1022,5 hPa 0,0 l/m 0,0 km/h (0 Bft) SO 135 2,8 C 7,8 C 0,0 km/h (0 Bft)
23.11.2014 17:35 3,8 C 92 % 1022,5 hPa 0,0 l/m 0,0 km/h (0 Bft) SO 135 2,6 C 7,8 C 0,0 km/h (0 Bft)
23.11.2014 17:40 3,9 C 92 % 1022,6 hPa 0,0 l/m 0,0 km/h (0 Bft) SO 135 2,7 C 7,8 C 0,0 km/h (0 Bft)
23.11.2014 17:45 3,8 C 93 % 1022,6 hPa 0,0 l/m 0,0 km/h (0 Bft) SO 135 2,8 C 7,8 C 0,0 km/h (0 Bft)
23.11.2014 17:50 4,7 C 93 % 1022,6 hPa 0,0 l/m 0,0 km/h (0 Bft) SO 135 3,7 C 7,8 C 0,0 km/h (0 Bft)
23.11.2014 17:55 4,1 C 93 % 1022,6 hPa 0,0 l/m 0,0 km/h (0 Bft) SO 135 3,1 C 7,8 C 0,0 km/h (0 Bft)
23.11.2014 18:00 4,9 C 94 % 1022,5 hPa 0,0 l/m 0,0 km/h (0 Bft) SO 135 4,0 C 7,8 C 0,0 km/h (0 Bft)
23.11.2014 18:05 3,6 C 93 % 1022,5 hPa 0,0 l/m 0,0 km/h (0 Bft) SO 135 2,6 C 7,8 C 0,0 km/h (0 Bft)
23.11.2014 18:10 4,1 C 93 % 1022,5 hPa 0,0 l/m 0,0 km/h (0 Bft) SO 135 3,1 C 7,8 C 0,0 km/h (0 Bft)
23.11.2014 18:15 4,8 C 94 % 1022,5 hPa 0,0 l/m 0,0 km/h (0 Bft) SO 135 3,9 C 7,8 C 0,0 km/h (0 Bft)
23.11.2014 18:20 4,2 C 94 % 1022,4 hPa 0,0 l/m 0,0 km/h (0 Bft) SO 135 3,3 C 7,8 C 0,0 km/h (0 Bft)
23.11.2014 18:25 3,5 C 94 % 1022,4 hPa 0,0 l/m 0,0 km/h (0 Bft) SO 135 2,6 C 7,8 C 0,0 km/h (0 Bft)
23.11.2014 18:30 3,3 C 94 % 1022,4 hPa 0,0 l/m 0,0 km/h (0 Bft) SO 135 2,4 C 7,8 C 0,0 km/h (0 Bft)
23.11.2014 18:35 3,1 C 94 % 1022,4 hPa 0,0 l/m 0,0 km/h (0 Bft) SO 135 2,2 C 7,8 C 0,0 km/h (0 Bft)
23.11.2014 18:40 3,0 C 94 % 1022,9 hPa 0,0 l/m 0,0 km/h (0 Bft) SO 135 2,1 C 7,8 C 0,0 km/h (0 Bft)
23.11.2014 18:45 3,0 C 94 % 1022,9 hPa 0,0 l/m 0,0 km/h (0 Bft) SO 135 2,1 C 7,8 C 0,0 km/h (0 Bft)
23.11.2014 18:50 2,9 C 95 % 1022,9 hPa 0,0 l/m 0,0 km/h (0 Bft) SO 135 2,2 C 7,8 C 0,0 km/h (0 Bft)
23.11.2014 18:55 2,7 C 95 % 1022,9 hPa 0,0 l/m 0,0 km/h (0 Bft) SO 135 2,0 C 7,8 C 0,0 km/h (0 Bft)
23.11.2014 19:00 2,6 C 95 % 1022,2 hPa 0,0 l/m 0,0 km/h (0 Bft) SO 135 1,9 C 7,8 C 0,0 km/h (0 Bft)
23.11.2014 19:05 3,0 C 94 % 1022,2 hPa 0,0 l/m 0,0 km/h (0 Bft) SO 135 2,1 C 7,8 C 0,0 km/h (0 Bft)
23.11.2014 19:10 3,0 C 94 % 1022,2 hPa 0,0 l/m 0,0 km/h (0 Bft) SO 135 2,1 C 7,8 C 0,0 km/h (0 Bft)
23.11.2014 19:15 2,6 C 95 % 1022,2 hPa 0,0 l/m 0,0 km/h (0 Bft) SO 135 1,9 C 7,8 C 0,0 km/h (0 Bft)
23.11.2014 19:20 2,6 C 95 % 1022,2 hPa 0,0 l/m 0,0 km/h (0 Bft) SO 135 1,9 C 7,8 C 0,0 km/h (0 Bft)
23.11.2014 19:25 2,3 C 95 % 1022,2 hPa 0,0 l/m 0,0 km/h (0 Bft) SO 135 1,6 C 7,8 C 0,0 km/h (0 Bft)
23.11.2014 19:30 2,3 C 95 % 1022,2 hPa 0,0 l/m 0,0 km/h (0 Bft) SO 135 1,6 C 7,8 C 0,0 km/h (0 Bft)
23.11.2014 19:35 2,3 C 95 % 1022,2 hPa 0,0 l/m 0,0 km/h (0 Bft) SO 135 1,6 C 7,8 C 0,0 km/h (0 Bft)
23.11.2014 19:40 2,3 C 96 % 1022,1 hPa 0,0 l/m 0,0 km/h (0 Bft) SO 135 1,7 C 7,8 C 0,0 km/h (0 Bft)
23.11.2014 19:45 2,4 C 96 % 1022,1 hPa 0,0 l/m 0,0 km/h (0 Bft) SO 135 1,8 C 7,8 C 0,0 km/h (0 Bft)
23.11.2014 19:50 2,4 C 96 % 1022,1 hPa 0,0 l/m 0,0 km/h (0 Bft) SO 135 1,8 C 7,8 C 0,0 km/h (0 Bft)
23.11.2014 19:55 2,3 C 96 % 1022,1 hPa 0,0 l/m 0,0 km/h (0 Bft) SO 135 1,7 C 7,8 C 0,0 km/h (0 Bft)
23.11.2014 20:00 2,6 C 96 % 1022,2 hPa 0,0 l/m 0,0 km/h (0 Bft) SO 135 2,0 C 7,8 C 0,0 km/h (0 Bft)
23.11.2014 20:05 2,4 C 96 % 1022,2 hPa 0,0 l/m 0,0 km/h (0 Bft) SO 135 1,8 C 7,8 C 0,0 km/h (0 Bft)
23.11.2014 20:10 2,2 C 96 % 1022,2 hPa 0,0 l/m 0,0 km/h (0 Bft) SO 135 1,6 C 7,8 C 0,0 km/h (0 Bft)
23.11.2014 20:15 2,7 C 96 % 1022,2 hPa 0,0 l/m 0,0 km/h (0 Bft) SO 135 2,1 C 7,8 C 0,0 km/h (0 Bft)
23.11.2014 20:20 2,3 C 96 % 1022,1 hPa 0,0 l/m 0,0 km/h (0 Bft) SO 135 1,7 C 7,8 C 0,0 km/h (0 Bft)
23.11.2014 20:23 2,4 C 96 % 1022,1 hPa 0,0 l/m 0,0 km/h (0 Bft) SO 135 1,8 C 7,8 C 0,0 km/h (0 Bft)
23.11.2014 20:30 2,2 C 96 % 1022,1 hPa 0,0 l/m 0,0 km/h (0 Bft) SO 135 1,6 C 7,8 C 0,0 km/h (0 Bft)
23.11.2014 20:35 2,7 C 96 % 1022,1 hPa 0,0 l/m 0,0 km/h (0 Bft) SO 135 2,1 C 7,8 C 0,0 km/h (0 Bft)
23.11.2014 20:40 2,4 C 96 % 1022,1 hPa 0,0 l/m 0,0 km/h (0 Bft) SO 135 1,8 C 7,8 C 0,0 km/h (0 Bft)
23.11.2014 20:45 2,9 C 96 % 1022,1 hPa 0,0 l/m 0,0 km/h (0 Bft) SO 135 2,3 C 7,8 C 0,0 km/h (0 Bft)
23.11.2014 20:50 2,6 C 96 % 1022,1 hPa 0,0 l/m 0,0 km/h (0 Bft) SO 135 2,0 C 7,8 C 0,0 km/h (0 Bft)
23.11.2014 20:55 2,3 C 96 % 1022,1 hPa 0,0 l/m 0,0 km/h (0 Bft) SO 135 1,7 C 7,8 C 0,0 km/h (0 Bft)
23.11.2014 21:00 2,5 C 96 % 1021,9 hPa 0,0 l/m 0,0 km/h (0 Bft) SO 135 1,9 C 7,8 C 0,0 km/h (0 Bft)
23.11.2014 21:05 2,3 C 96 % 1021,9 hPa 0,0 l/m 0,0 km/h (0 Bft) SO 135 1,7 C 7,8 C 0,0 km/h (0 Bft)
23.11.2014 21:10 2,5 C 96 % 1021,9 hPa 0,0 l/m 0,0 km/h (0 Bft) SO 135 1,9 C 7,8 C 0,0 km/h (0 Bft)
23.11.2014 21:15 2,3 C 96 % 1021,9 hPa 0,0 l/m 0,0 km/h (0 Bft) SO 135 1,7 C 7,8 C 0,0 km/h (0 Bft)
23.11.2014 21:20 2,4 C 96 % 1022,1 hPa 0,0 l/m 0,0 km/h (0 Bft) SO 135 1,8 C 7,8 C 0,0 km/h (0 Bft)
23.11.2014 21:25 2,4 C 96 % 1022,1 hPa 0,0 l/m 0,0 km/h (0 Bft) SO 135 1,8 C 7,8 C 0,0 km/h (0 Bft)
23.11.2014 21:30 2,6 C 96 % 1022,1 hPa 0,0 l/m 0,0 km/h (0 Bft) SO 135 2,0 C 7,8 C 0,0 km/h (0 Bft)
23.11.2014 21:35 2,3 C 96 % 1022,1 hPa 0,0 l/m 0,0 km/h (0 Bft) SO 135 1,7 C 7,8 C 0,0 km/h (0 Bft)
23.11.2014 21:40 2,3 C 97 % 1022,3 hPa 0,0 l/m 0,0 km/h (0 Bft) SO 135 1,9 C 7,8 C 0,0 km/h (0 Bft)
23.11.2014 21:45 2,2 C 97 % 1022,3 hPa 0,0 l/m 0,0 km/h (0 Bft) SO 135 1,8 C 7,8 C 0,0 km/h (0 Bft)
23.11.2014 21:50 2,2 C 97 % 1022,3 hPa 0,0 l/m 0,0 km/h (0 Bft) SO 135 1,8 C 7,8 C 0,0 km/h (0 Bft)
23.11.2014 21:55 2,4 C 97 % 1022,3 hPa 0,0 l/m 0,0 km/h (0 Bft) SO 135 2,0 C 7,8 C 0,0 km/h (0 Bft)
23.11.2014 22:00 2,3 C 97 % 1022,2 hPa 0,0 l/m 0,0 km/h (0 Bft) SO 135 1,9 C 7,8 C 0,0 km/h (0 Bft)
23.11.2014 22:05 2,4 C 97 % 1022,2 hPa 0,0 l/m 0,0 km/h (0 Bft) SO 135 2,0 C 7,8 C 0,0 km/h (0 Bft)
23.11.2014 22:10 2,2 C 97 % 1022,2 hPa 0,0 l/m 0,0 km/h (0 Bft) SO 135 1,8 C 7,8 C 0,0 km/h (0 Bft)
23.11.2014 22:15 2,4 C 97 % 1022,2 hPa 0,0 l/m 0,0 km/h (0 Bft) SO 135 2,0 C 7,8 C 0,0 km/h (0 Bft)
23.11.2014 22:20 2,2 C 97 % 1022,2 hPa 0,0 l/m 0,0 km/h (0 Bft) SO 135 1,8 C 7,8 C 0,0 km/h (0 Bft)
23.11.2014 22:25 2,3 C 97 % 1022,2 hPa 0,0 l/m 0,0 km/h (0 Bft) SO 135 1,9 C 7,8 C 0,0 km/h (0 Bft)
23.11.2014 22:30 2,2 C 97 % 1022,2 hPa 0,0 l/m 0,0 km/h (0 Bft) SO 135 1,8 C 7,8 C 0,0 km/h (0 Bft)
23.11.2014 22:35 2,3 C 97 % 1022,2 hPa 0,0 l/m 0,0 km/h (0 Bft) SO 135 1,9 C 7,8 C 0,0 km/h (0 Bft)
23.11.2014 22:40 2,2 C 97 % 1022,1 hPa 0,0 l/m 0,0 km/h (0 Bft) SO 135 1,8 C 7,8 C 0,0 km/h (0 Bft)
23.11.2014 22:45 2,6 C 97 % 1022,1 hPa 0,0 l/m 0,0 km/h (0 Bft) SO 135 2,2 C 7,8 C 0,0 km/h (0 Bft)
23.11.2014 22:50 2,5 C 97 % 1022,1 hPa 0,0 l/m 0,0 km/h (0 Bft) SO 135 2,1 C 7,8 C 0,0 km/h (0 Bft)
23.11.2014 22:55 3,1 C 96 % 1022,1 hPa 0,0 l/m 0,0 km/h (0 Bft) SO 135 2,5 C 7,8 C 0,0 km/h (0 Bft)
23.11.2014 23:00 2,9 C 97 % 1022,1 hPa 0,0 l/m 0,0 km/h (0 Bft) SO 135 2,5 C 7,8 C 0,0 km/h (0 Bft)
23.11.2014 23:05 2,5 C 97 % 1022,1 hPa 0,0 l/m 0,0 km/h (0 Bft) SO 135 2,1 C 7,8 C 0,0 km/h (0 Bft)
23.11.2014 23:10 2,3 C 97 % 1022,1 hPa 0,0 l/m 0,0 km/h (0 Bft) SO 135 1,9 C 7,8 C 0,0 km/h (0 Bft)
23.11.2014 23:15 2,3 C 97 % 1022,1 hPa 0,0 l/m 0,0 km/h (0 Bft) SO 135 1,9 C 7,8 C 0,0 km/h (0 Bft)
23.11.2014 23:20 2,9 C 97 % 1022,2 hPa 0,0 l/m 0,0 km/h (0 Bft) SO 135 2,5 C 7,8 C 0,0 km/h (0 Bft)
23.11.2014 23:23 2,6 C 97 % 1022,2 hPa 0,0 l/m 0,0 km/h (0 Bft) SO 135 2,2 C 7,8 C 0,0 km/h (0 Bft)
23.11.2014 23:25 2,6 C 97 % 1022,2 hPa 0,0 l/m 0,0 km/h (0 Bft) SO 135 2,2 C 7,8 C 0,0 km/h (0 Bft)
23.11.2014 23:30 2,6 C 97 % 1022,2 hPa 0,0 l/m 0,0 km/h (0 Bft) SO 135 2,2 C 7,8 C 0,0 km/h (0 Bft)
23.11.2014 23:35 2,5 C 97 % 1022,2 hPa 0,0 l/m 0,0 km/h (0 Bft) SO 135 2,1 C 7,8 C 0,0 km/h (0 Bft)
23.11.2014 23:40 2,3 C 97 % 1022,0 hPa 0,0 l/m 0,0 km/h (0 Bft) SO 135 1,9 C 7,8 C 0,0 km/h (0 Bft)
23.11.2014 23:45 2,6 C 97 % 1022,0 hPa 0,0 l/m 0,0 km/h (0 Bft) SO 135 2,2 C 7,8 C 0,0 km/h (0 Bft)
23.11.2014 23:50 2,5 C 97 % 1022,0 hPa 0,0 l/m 0,0 km/h (0 Bft) SO 135 2,1 C 7,8 C 0,0 km/h (0 Bft)
23.11.2014 23:55 2,6 C 97 % 1022,0 hPa 0,0 l/m 0,0 km/h (0 Bft) SO 135 2,2 C 7,8 C 0,0 km/h (0 Bft)
_ Min-Zeit 07:00 14:25 21:15 - 23:55 - - 07:00 23:55 23:55
Minimum _ -0,7 C 82 % 1021,9 hPa - 0,0 km/h (0 Bft) - - -1,1 C 7,8 C 0,0 km/h (0 Bft)
_ Max-Zeit 14:10 08:55 11:15 23:55 23:55 - - 13:55 23:55 23:55
Maximum _ 11,0 C 98 % 1024,2 hPa 0,0 l/m 0,0 km/h
SO (0 Bft)
- - 8,7 C 7,8 C 0,0 km/h
SO (0 Bft)
Durchschnitt _ 3,4 C 95 % 1022,8 hPa #0,0 l/m 0,0 km/h (0 Bft) - - - 2,6 C 7,8 C 0,0 km/h (0 Bft)